Weather observations for the past three days for
South Bend International Airport
Imperial (Metric)
Date Time (edt) Wind (mph) Vis. (mi.) Weather Sky Cond. Temperature (ºF) Relative Humidity Wind Chill (°F) Heat Index (°F) Pressure Precipitation (in)
Air Dwpt 6 hour altimeter (in) sea level (mb) 1 hr 3 hr 6 hr
Max. Min.
20 06:54 Calm 8.00 Mostly Cloudy BKN080 73 69.1 87% 30.27 1024.4
20 05:54 Calm 10.00 Fair CLR 73.9 68 82% 30.26 1023.9
20 04:54 SE 5 10.00 Fair CLR 75.9 68 77% 77 30.25 1023.8
20 03:54 E 3 10.00 Mostly Cloudy BKN065 77 68 74% 79 30.25 1023.6
20 02:54 Calm 10.00 Fair CLR 77 68 74% 79 30.25 1023.8
20 01:54 Calm 10.00 Fair CLR 75.9 68 90 75.9 77% 77 30.26 1023.9
20 00:54 N 5 10.00 Fair CLR 78.1 69.1 74% 80 30.26 1024.1
19 23:54 Calm 10.00 Fair CLR 80.1 71.1 74% 84 30.25 1023.7
19 22:54 S 3 10.00 Fair CLR 82 71.1 69% 86 30.25 1023.5
19 21:54 S 3 10.00 Fair CLR 86 70 59% 91 30.23 1022.9
19 20:54 S 6 10.00 Mostly Cloudy BKN080 88 70 55% 93 30.22 1022.5
19 19:54 SW 5 10.00 Fair CLR 89.1 69.1 91.9 88 52% 94 30.21 1022.3
19 18:54 S 7 10.00 A Few Clouds FEW095 91 69.1 49% 96 30.21 1022.2
19 17:54 SW 5 10.00 Fair CLR 90 69.1 50% 95 30.21 1022.3
19 16:54 S 9 10.00 Fair CLR 91 69.1 49% 96 30.22 1022.6
19 15:54 SW 12 10.00 Fair CLR 90 68 48% 94 30.23 1022.9
19 14:54 S 8 10.00 Fair CLR 90 68 48% 94 30.24 1023.2
19 13:54 SW 8 10.00 Fair CLR 89.1 69.1 89.1 77 52% 94 30.24 1023.3
19 12:54 Vrbl 6 10.00 Fair CLR 88 70 55% 93 30.24 1023.4
19 11:54 S 8 10.00 Fair CLR 86 69.1 57% 90 30.25 1023.5
19 10:54 SW 6 10.00 Fair CLR 82 69.1 65% 85 30.24 1023.4
19 09:54 NW 9 10.00 Overcast SCT070 OVC095 80.1 70 71% 83 30.26 1024.1
19 08:54 S 8 10.00 Fair CLR 79 70 74% 82 30.23 1022.8
19 07:54 SW 6 10.00 Fair CLR 77 69.1 79 75.9 77% 79 30.21 1022.3
19 06:54 SW 6 10.00 Fair CLR 77 68 74% 79 30.2 1022.0
19 05:54 SW 3 10.00 Fair CLR 77 68 74% 79 30.19 1021.5
19 04:54 SW 5 10.00 Fair CLR 77 68 74% 79 30.17 1020.8
19 03:54 SW 7 10.00 Fair CLR 78.1 68 71% 80 30.16 1020.4
19 02:54 SW 10 10.00 Fair CLR 79 68 69% 81 30.15 1020.1
19 01:54 S 10 10.00 Fair CLR 79 69.1 87.1 79 72% 82 30.14 1020.0
19 00:54 S 8 10.00 Fair CLR 79 69.1 72% 82 30.14 1020.0
18 23:54 S 10 10.00 Fair CLR 80.1 69.1 69% 83 30.12 1019.3
18 22:54 S 13 10.00 Fair CLR 81 69.1 67% 84 30.09 1018.3
18 21:54 S 10 10.00 Fair CLR 82 70 67% 86 30.07 1017.6
18 20:54 S 13 10.00 Fair CLR 84 70 63% 88 30.06 1017.1
18 19:54 S 17 G 25 10.00 Fair CLR 87.1 70 91 84 57% 92 30.05 1016.9
18 18:54 S 18 G 26 10.00 A Few Clouds FEW045 88 71.1 57% 94 30.05 1016.7
18 17:54 S 20 G 29 10.00 A Few Clouds FEW050 90 70 52% 95 30.05 1016.9
18 16:54 SW 16 G 31 10.00 A Few Clouds FEW048 90 70 52% 95 30.06 1017.2
18 15:54 S 21 G 30 10.00 Fair and Breezy CLR 88 70 55% 93 30.08 1017.7
18 14:54 S 22 G 31 10.00 Fair and Breezy CLR 89.1 70 53% 94 30.08 1017.8
18 13:54 S 15 G 24 10.00 Fair CLR 84 71.1 84.9 75 65% 89 30.09 1018.0
18 12:54 S 20 G 28 10.00 Partly Cloudy SCT100 82 70 67% 86 30.09 1018.3
18 11:54 S 15 10.00 Mostly Cloudy FEW050 SCT080 BKN110 78.1 71.1 79% 80 30.1 1018.7
18 10:54 SW 17 G 25 10.00 Light Rain FEW090 FEW120 78.1 69.1 74% 80 30.09 1018.3
18 09:54 S 12 10.00 A Few Clouds FEW100 FEW120 77 68 74% 79 30.08 1018.0
18 08:54 S 12 10.00 Mostly Cloudy BKN110 75.9 66.9 74% 77 30.07 1017.5
18 07:54 S 9 10.00 Light Rain FEW110 77 66.9 81 77 71% 79 30.06 1017.2
18 06:54 S 12 10.00 Fair CLR 77 66.9 71% 79 30.04 1016.4
18 05:54 S 9 10.00 Fair CLR 78.1 68 71% 80 30.03 1016.0
18 04:54 S 8 10.00 Fair CLR 78.1 68 71% 80 30.01 1015.6
18 03:54 S 9 10.00 Fair CLR 79 68 69% 81 30.02 1015.8
18 02:54 S 8 10.00 Fair CLR 79 69.1 72% 82 30.02 1015.9
18 01:54 S 8 10.00 Fair CLR 81 69.1 89.1 81 67% 84 30.03 1016.0
18 00:54 S 9 10.00 Fair CLR 82.9 69.1 63% 87 30.02 1015.9
17 23:54 S 9 10.00 Fair CLR 84 69.1 61% 88 30 1014.9
17 22:54 S 9 10.00 Fair CLR 84.9 69.1 59% 89 29.98 1014.3
17 21:54 S 9 10.00 Fair CLR 86 69.1 57% 90 29.97 1013.9
17 20:54 S 6 10.00 Fair CLR 87.1 71.1 59% 93 29.96 1013.7
17 19:54 S 6 10.00 Fair CLR 89.1 73 93.9 84 59% 97 29.94 1013.2
17 18:54 SW 5 10.00 Fair CLR 91 72 54% 99 29.94 1013.2
17 17:54 SW 9 10.00 Fair CLR 90 70 52% 95 29.95 1013.3
17 16:54 SW 6 10.00 Fair CLR 86 68 55% 89 29.96 1013.9
17 15:54 S 9 G 24 10.00 Thunderstorm FEW050 BKN100 BKN120 84.9 66.9 55% 88 29.98 1014.5
17 14:54 SW 14 G 21 10.00 A Few Clouds FEW055 93 71.1 49% 100 29.98 1014.5
17 13:54 W 9 G 28 10.00 A Few Clouds FEW050 FEW110 91.9 71.1 93 78.1 51% 99 29.99 1014.9
17 12:54 SW 15 G 24 10.00 A Few Clouds FEW047 89.1 71.1 55% 95 30.01 1015.4
17 11:54 S 13 10.00 Fair CLR 89.1 73 59% 97 30.02 1015.7
17 10:54 SW 8 9.00 Fair CLR 87.1 73 63% 95 30.03 1016.0
17 09:54 SW 14 9.00 A Few Clouds FEW110 82.9 72 70% 88 30.03 1016.3
17 08:54 SW 9 9.00 Fair CLR 81 71.1 72% 85 30.01 1015.5
17 07:54 SW 8 9.00 Fair CLR 78.1 70 78.1 73.9 76% 80 29.99 1014.8
Date Time (edt) Wind (mph) Vis. (mi.) Weather Sky Cond. Air Dwpt Max. Min. Relative Humidity Wind Chill (°F) Heat Index (°F) altimeter (in) sea level (mb) 1 hr 3 hr 6 hr
6 hour
Temperature (ºF) Pressure Precipitation (in)